{"data":{"norad_id":62487,"intl_designator":"2025-003A","name":"STARLINK-32713","alt_names":[],"object_type":"PAYLOAD","status":"ACTIVE","operator":null,"country":"US","launch_date":"2025-01-06","launch_site_code":"AFETR","launch_vehicle":null,"mission":null,"orbit_class":"UNKNOWN","rcs_meters":null,"size_class":null,"mass_kg":null,"dimensions":null,"purposes":["comms"],"wikipedia_slug":null,"has_3d_model":false,"image_url":null,"decayed_at":null,"tle_current":{"epoch":"2026-05-25T05:02:55.039200Z","epoch_age_seconds":50802,"freshness":"FRESH","line1":"1 62487U 25003A   26145.21035925  .00022394  00000+0  82031-3 0  9998","line2":"2 62487  42.9968 216.8934 0000450 279.9268  80.1532 15.27600574 78351","mean_motion":15.27600574,"eccentricity":4.5e-5,"inclination_deg":42.9968,"raan_deg":216.8934,"arg_perigee_deg":279.9268,"mean_anomaly_deg":80.1532,"bstar":0.00082031,"rev_number":7835,"period_min":94.265479112081,"perigee_km":482.67874017154,"apogee_km":483.29624137571,"semimajor_km":6861.1244907736,"source":"CELESTRAK","updated_at":"2026-05-25T13:38:19.696037Z"}}}